[[{"header":{"parameterUnit":"m.s-1","parameterCategory":1,"la1":30.2991,"la2":30.254,"lo1":-89.0895,"lo2":-89.0444,"dy":0.0017,"dx":0.0017,"nx":28,"ny":28,"refTime":"2025-01-31T03:00:00:Z","depth":0,"parameterNumber":2,"parameterNumberName":"U-component_of_WINDS"},"data":[0,0,0,0,0,0,0,0,0,0,0,0,0,0,0,0,0,0,0,0,0,0,0,0,0,0,0,0,0,0,0,0,0,0,0,0,0,0,0,0,0,0,0,0,0,0,0,0,0,0,0,0,0,0,0,0,0,0,2.9885,2.9886,0,2.9934,2.9935,2.9935,2.9896,2.9894,2.9892,2.9891,2.9941,2.9943,2.9946,0,0,0,0,0,0,0,0,0,0,0,0,0,2.9757,2.976,2.9885,2.9886,2.9886,2.9934,2.9935,2.9936,2.9896,2.9894,2.9892,2.989,2.994,2.9943,2.9947,0,0,0,0,0,0,0,0,0,0,0,0,0,2.981,2.9761,2.9885,2.9872,2.9872,2.9934,2.9935,2.9936,2.9896,2.9894,2.9891,2.9889,2.9938,2.9943,2.9947,3.0024,0,0,2.996,2.9962,0,0,0,0,0,0,0,0,2.9807,2.9815,2.9873,2.9873,2.9873,2.9906,2.9908,2.9965,2.9897,2.9887,2.9891,2.9888,2.9931,2.9936,2.9951,3.0027,3.0029,2.9961,2.9963,2.9965,2.9966,0,0,0,0,0,0,0,2.9804,2.9813,2.9904,2.9874,2.9874,2.9864,2.9869,2.9919,2.9923,2.9888,2.9885,2.9891,2.993,2.9947,2.9952,3.003,2.9961,2.9964,2.9967,2.9969,3.0174,3.0177,0,0,0,0,0,0,2.9801,2.981,2.9903,2.9906,2.9833,2.9869,2.9874,2.9898,2.9922,2.9923,2.9893,2.9889,2.994,2.9947,2.9953,3.0047,2.9965,2.9969,2.9972,3.0171,3.0175,3.0178,0,0,0,0,0,0,2.9799,2.981,2.9901,2.9857,2.9868,2.9874,2.9901,2.99,2.9916,2.9926,2.9927,2.9909,2.9939,2.9947,3.0008,3.0048,2.9971,2.9975,3.0168,3.0172,3.0176,3.0235,0,0,0,0,0,0,2.9795,2.9809,2.9838,2.9858,2.9871,2.9954,2.9903,2.9903,2.9924,2.9919,2.9941,2.9943,2.9937,3.0001,3.0012,3.0053,2.9979,3.0164,3.017,3.0175,3.0229,3.0241,3.025,0,0,0,0,0,2.9791,2.9852,2.984,2.9852,2.9907,2.9957,2.9964,2.9957,2.9927,2.9957,2.9964,2.9942,3.0042,3.0008,3.0019,3.0062,3.0162,3.0168,3.0174,3.0225,3.0239,3.025,0,0,0,0,0,0,2.9837,2.9855,2.9841,2.9911,2.9933,2.995,2.9987,2.9971,3.0002,2.9996,2.9985,2.9991,3.0055,3.0064,3.0026,3.014,3.0097,3.0106,3.0131,3.0145,3.0155,3.0152,2.9982,0,0,0,0,0,2.9855,2.9894,2.9907,2.9968,2.9979,2.9982,3.0003,2.9996,3.0018,3.0027,3.0038,3.006,3.0096,3.0121,3.0155,3.023,3.0235,3.0266,3.0276,3.0285,3.0293,3.0336,3.035,3.0199,3.0199,3.0199,0,0,2.9893,2.9908,2.9933,2.9977,2.9993,3.0034,2.999,3.0034,3.0065,3.0033,3.0092,3.0101,3.0125,3.0194,3.0225,3.0204,3.0336,3.0293,3.03,3.0303,3.0344,3.0358,3.0371,3.0203,3.0202,3.0202,0,0,2.9984,2.9998,3.0051,3.0069,3.0094,3.0095,3.0108,3.0128,3.0133,3.0192,3.0169,3.0206,3.0268,3.0287,3.0305,3.0405,3.0387,3.0416,3.0471,3.0513,3.0525,3.0536,3.0573,3.0587,3.0424,3.0424,3.0424,0,3.0028,3.0089,3.008,3.0128,3.0149,3.0123,3.0177,3.0194,3.0229,3.0244,3.022,3.03,3.0314,3.0388,3.0413,3.0427,3.0443,3.0414,3.0524,3.0535,3.0544,3.058,3.0594,3.0428,3.0428,3.0427,3.0427,0,3.0143,3.0186,3.0226,3.0261,3.0287,3.0337,3.0337,3.0363,3.0354,3.0358,3.0419,3.0436,3.0474,3.049,3.0481,3.0564,3.055,3.0525,3.0483,3.0563,3.0596,3.0609,3.0433,3.0432,3.0431,3.043,0,0,3.0264,3.0296,3.031,3.0327,3.0354,3.0387,3.0436,3.0474,3.0498,3.0523,3.0566,3.062,3.0598,3.0618,3.0611,3.0648,3.0729,3.0619,3.0619,3.064,3.0823,3.0843,3.0859,3.0716,3.0719,3.0721,3.0821,0,3.0358,3.0445,3.0439,3.0522,3.0562,3.0539,3.0582,3.0604,3.0609,3.0644,3.065,3.069,3.0656,3.0669,3.0704,3.0711,3.0765,3.0704,3.0756,3.0758,3.0753,3.0876,3.0896,3.0991,3.0834,3.0836,3.0838,0,3.0479,3.0509,3.0596,3.0619,3.0635,3.0675,3.071,3.0743,3.0768,3.0769,3.0793,3.078,3.0831,3.0787,3.0858,3.0816,3.0837,3.0845,3.0848,3.0854,3.0804,3.0887,3.1021,3.1035,3.0858,3.0856,3.0855,0,3.0561,3.0624,3.0684,3.0699,3.0726,3.0755,3.0767,3.0789,3.0813,3.0843,3.0859,3.0895,3.0915,3.0943,3.0941,3.0908,3.1014,3.0968,3.1018,3.1018,3.1042,3.1041,3.1183,3.1053,3.1053,3.1052,3.1052,0,3.0667,3.0721,3.0722,3.0759,3.082,3.0813,3.0873,3.0883,3.0903,3.0942,3.0923,3.0961,3.0955,3.0992,3.0991,3.1051,3.106,3.1063,3.1062,3.1066,3.1066,3.108,3.1075,3.1056,3.1055,3.1055,3.1054,0,3.0769,3.0771,3.0836,3.0857,3.0864,3.0908,3.0926,3.0962,3.0966,3.1016,3.1028,3.1034,3.1078,3.1078,3.1127,3.1127,3.1201,3.1192,3.1193,3.1192,3.1242,3.1238,3.14,3.1422,3.1276,3.1277,3.1279,0,3.0838,3.0879,3.0905,3.093,3.0945,3.0986,3.1011,3.1006,3.1032,3.1064,3.1096,3.1138,3.1172,3.1242,3.1252,3.129,3.1282,3.1337,3.1288,3.1291,3.1286,3.1284,3.1289,3.1347,3.1348,3.135,3.1351,0,3.0959,3.0959,3.0995,3.1033,3.1063,3.1092,3.1119,3.114,3.1139,3.1169,3.1214,3.124,3.1292,3.1334,3.1371,3.1384,3.1368,3.1366,3.138,3.1384,3.1384,3.1387,3.1221,3.1362,3.1361,3.136,3.136,3.1359,3.1048,3.1085,3.1109,3.1151,3.1171,3.1197,3.1232,3.1242,3.1279,3.1321,3.1316,3.1366,3.139,3.1439,3.1455,3.1495,3.1476,3.1496,3.1501,3.1506,3.1513,3.1377,3.1501,3.1501,3.1501,3.15,3.15,0,3.1171,3.1186,3.1224,3.1263,3.1296,3.1278,3.1307,3.1336,3.1381,3.1405,3.1439,3.1492,3.1533,3.1546,3.1586,3.1616,3.1609,3.1626,3.1625,3.1629,3.1526,3.1511,3.1631,3.1631,3.1631,3.1631,3.1631,3.1631,3.1238,3.13,3.1303,3.1375,3.1389,3.1439,3.1458,3.1482,3.1502,3.1562,3.1596,3.1605,3.1625,3.1667,3.1705,3.1707,3.1724,3.1745,3.1745,3.1649,3.1636,3.1623,3.1609,3.1748,3.1748,3.1844,3.1845,3.1846]},{"header":{"parameterUnit":"m.s-1","parameterCategory":1,"la1":30.2991,"la2":30.254,"lo1":-89.0895,"lo2":-89.0444,"dy":0.0017,"dx":0.0017,"nx":28,"ny":28,"refTime":"2025-01-31T03:00:00:Z","depth":0,"parameterNumber":3,"parameterNumberName":"V-component_of_WINDS"},"data":[0,0,0,0,0,0,0,0,0,0,0,0,0,0,0,0,0,0,0,0,0,0,0,0,0,0,0,0,0,0,0,0,0,0,0,0,0,0,0,0,0,0,0,0,0,0,0,0,0,0,0,0,0,0,0,0,0,0,-2.5092,-2.5093,0,-2.5198,-2.5199,-2.52,-2.5255,-2.5255,-2.5255,-2.5255,-2.5369,-2.5372,-2.5374,0,0,0,0,0,0,0,0,0,0,0,0,0,-2.4943,-2.4946,-2.5092,-2.5093,-2.5094,-2.5197,-2.5199,-2.52,-2.5255,-2.5255,-2.5255,-2.5255,-2.5368,-2.5371,-2.5375,0,0,0,0,0,0,0,0,0,0,0,0,0,-2.5024,-2.4946,-2.5091,-2.5134,-2.5138,-2.5197,-2.5199,-2.5201,-2.5255,-2.5255,-2.5255,-2.5255,-2.5366,-2.5371,-2.5375,-2.5402,0,0,-2.5389,-2.5391,0,0,0,0,0,0,0,0,-2.502,-2.503,-2.5126,-2.5131,-2.5136,-2.5213,-2.5188,-2.5268,-2.5255,-2.5211,-2.5255,-2.5255,-2.5317,-2.5326,-2.5346,-2.5407,-2.5412,-2.5389,-2.5392,-2.5394,-2.5395,0,0,0,0,0,0,0,-2.5014,-2.5026,-2.5134,-2.5127,-2.5134,-2.515,-2.5161,-2.5204,-2.5262,-2.5215,-2.5219,-2.523,-2.532,-2.5341,-2.5349,-2.5413,-2.5389,-2.5393,-2.5396,-2.5398,-2.5506,-2.5506,0,0,0,0,0,0,-2.5001,-2.5021,-2.513,-2.5137,-2.5077,-2.5152,-2.5165,-2.5188,-2.5262,-2.5273,-2.523,-2.5232,-2.5333,-2.5343,-2.5353,-2.539,-2.5394,-2.5398,-2.5401,-2.5505,-2.5506,-2.5506,0,0,0,0,0,0,-2.4997,-2.501,-2.5126,-2.508,-2.5096,-2.5155,-2.518,-2.519,-2.5212,-2.5274,-2.5285,-2.524,-2.5334,-2.5347,-2.5389,-2.5395,-2.54,-2.5404,-2.5505,-2.5505,-2.5506,-2.5464,0,0,0,0,0,0,-2.4993,-2.5008,-2.5017,-2.508,-2.5098,-2.5158,-2.5181,-2.5192,-2.5218,-2.5223,-2.5286,-2.5297,-2.5335,-2.5382,-2.5394,-2.5401,-2.5408,-2.5505,-2.5505,-2.5506,-2.5465,-2.5463,-2.5461,0,0,0,0,0,-2.4987,-2.5002,-2.5017,-2.503,-2.511,-2.5159,-2.5169,-2.5211,-2.5219,-2.5229,-2.527,-2.5295,-2.5393,-2.5386,-2.54,-2.5409,-2.5505,-2.5505,-2.5506,-2.5466,-2.5464,-2.5461,0,0,0,0,0,0,-2.4939,-2.501,-2.5028,-2.5063,-2.5104,-2.5168,-2.5182,-2.5206,-2.5247,-2.525,-2.5301,-2.5315,-2.5354,-2.5386,-2.5378,-2.544,-2.5452,-2.5455,-2.5417,-2.5415,-2.5413,-2.5405,-2.5411,0,0,0,0,0,-2.4933,-2.4964,-2.5026,-2.505,-2.507,-2.5122,-2.5145,-2.5174,-2.5219,-2.5237,-2.5281,-2.5326,-2.5367,-2.5393,-2.5434,-2.5471,-2.5487,-2.5484,-2.5482,-2.5479,-2.5482,-2.5506,-2.5506,-2.5507,-2.5507,-2.5507,0,0,-2.4919,-2.4962,-2.4979,-2.5042,-2.5077,-2.5111,-2.5137,-2.5171,-2.5198,-2.5243,-2.5286,-2.532,-2.5374,-2.5414,-2.5434,-2.5442,-2.5485,-2.548,-2.5478,-2.5481,-2.5507,-2.5507,-2.5506,-2.5507,-2.5507,-2.5507,0,0,-2.4913,-2.4947,-2.4972,-2.5007,-2.506,-2.5095,-2.5102,-2.5162,-2.5186,-2.523,-2.5266,-2.5299,-2.5368,-2.5406,-2.5434,-2.5444,-2.547,-2.5457,-2.5445,-2.5469,-2.5469,-2.5469,-2.5474,-2.5476,-2.5459,-2.5459,-2.5458,0,-2.489,-2.494,-2.4983,-2.5015,-2.5043,-2.5086,-2.5113,-2.5146,-2.521,-2.523,-2.5237,-2.5326,-2.5365,-2.5416,-2.5419,-2.544,-2.5451,-2.5449,-2.5465,-2.5466,-2.5466,-2.5472,-2.5474,-2.5457,-2.5457,-2.5457,-2.5457,0,-2.491,-2.4945,-2.496,-2.5019,-2.5049,-2.5079,-2.5129,-2.5155,-2.5182,-2.5217,-2.5263,-2.5312,-2.5364,-2.5379,-2.5406,-2.5435,-2.5438,-2.5454,-2.5467,-2.5464,-2.547,-2.5473,-2.5454,-2.5454,-2.5455,-2.5456,0,0,-2.4875,-2.4959,-2.4964,-2.4992,-2.5055,-2.5084,-2.5118,-2.5168,-2.519,-2.5234,-2.5265,-2.5324,-2.534,-2.5372,-2.5404,-2.5424,-2.5432,-2.5439,-2.5441,-2.5437,-2.547,-2.5457,-2.5459,-2.545,-2.545,-2.5451,-2.5466,0,-2.4877,-2.4937,-2.4978,-2.5022,-2.5057,-2.5099,-2.5129,-2.5172,-2.5207,-2.5243,-2.5283,-2.5324,-2.5341,-2.5361,-2.5383,-2.5426,-2.544,-2.5426,-2.5482,-2.5483,-2.5467,-2.5462,-2.5449,-2.546,-2.5469,-2.5469,-2.5469,0,-2.4888,-2.4929,-2.4977,-2.5038,-2.5054,-2.5079,-2.513,-2.5164,-2.5215,-2.5239,-2.5276,-2.5309,-2.535,-2.5359,-2.5417,-2.5407,-2.5433,-2.5458,-2.546,-2.5467,-2.5476,-2.547,-2.5465,-2.5467,-2.5474,-2.5473,-2.5473,0,-2.4858,-2.4926,-2.4964,-2.4987,-2.5059,-2.5077,-2.5108,-2.5159,-2.5188,-2.5234,-2.5253,-2.5303,-2.5331,-2.5371,-2.5418,-2.542,-2.5472,-2.5485,-2.5495,-2.5494,-2.5504,-2.5503,-2.5503,-2.5519,-2.5519,-2.5519,-2.5519,0,-2.4857,-2.4885,-2.4952,-2.4975,-2.5009,-2.5058,-2.509,-2.5126,-2.5172,-2.5205,-2.5245,-2.5276,-2.5336,-2.5375,-2.5412,-2.5456,-2.5468,-2.5491,-2.55,-2.5487,-2.5484,-2.5505,-2.5506,-2.552,-2.552,-2.552,-2.552,0,-2.4829,-2.4875,-2.4919,-2.4984,-2.5002,-2.5024,-2.5081,-2.5107,-2.5144,-2.5186,-2.5199,-2.5259,-2.5307,-2.5358,-2.5424,-2.5449,-2.5492,-2.5505,-2.5474,-2.5479,-2.5487,-2.5486,-2.5501,-2.5507,-2.5518,-2.5518,-2.5518,0,-2.4825,-2.4848,-2.4915,-2.4939,-2.4969,-2.5008,-2.5037,-2.5087,-2.5117,-2.5179,-2.5198,-2.5249,-2.5292,-2.5369,-2.542,-2.5471,-2.5486,-2.5488,-2.5494,-2.5481,-2.5488,-2.5486,-2.549,-2.5486,-2.5486,-2.5485,-2.5485,0,-2.4814,-2.4837,-2.4876,-2.4924,-2.4958,-2.4999,-2.5042,-2.506,-2.5119,-2.5151,-2.52,-2.5234,-2.5302,-2.5353,-2.5411,-2.5447,-2.5477,-2.5483,-2.5488,-2.5475,-2.5457,-2.5468,-2.5469,-2.5482,-2.5483,-2.5483,-2.5483,-2.5483,-2.48,-2.4822,-2.4873,-2.4917,-2.4955,-2.4994,-2.5022,-2.5064,-2.5105,-2.5162,-2.5191,-2.524,-2.5295,-2.5376,-2.5411,-2.5453,-2.5462,-2.5469,-2.5471,-2.5472,-2.5469,-2.545,-2.5464,-2.5464,-2.5464,-2.5464,-2.5464,0,-2.4792,-2.4827,-2.4867,-2.4925,-2.496,-2.4984,-2.5034,-2.5062,-2.5105,-2.5152,-2.5194,-2.5253,-2.5303,-2.5359,-2.5414,-2.5437,-2.5452,-2.545,-2.5449,-2.5457,-2.5458,-2.5448,-2.5437,-2.5437,-2.5437,-2.5437,-2.5437,-2.5437,-2.4791,-2.4832,-2.486,-2.4921,-2.4957,-2.5005,-2.5031,-2.5069,-2.5107,-2.517,-2.5212,-2.5247,-2.5299,-2.5359,-2.5408,-2.5423,-2.5442,-2.5436,-2.5455,-2.5455,-2.5457,-2.5459,-2.545,-2.5439,-2.5439,-2.5451,-2.5451,-2.5452]}]]